SJ-16

Satellite information

Favourite Embed

Satellite Type and Status

PAYLOADIN ORBIT

Key statistics

Satellite SJ-16 at a glance.

Uptime

4213

Days in orbit

Revolutions

≈ 14.9

Per day

Orbit

LEO

Low Earth Orbit

Inclination

75.0

Latest

Satellite identification and parameters

Extended collection of information and parameters for SJ-16.

Object identification

Identified? True

Debris? False

Object name: SJ-16

International designator: 2013-057A

Object number (NORAD): 39358

Object ID (CCSDS): 39358

Country: PEOPLES REPUBLIC OF CHINA (PRC)

Current information (Y/N): Y

RCS size: LARGE

Orbital parameters

Period: 96.563 minutes

Inclination: 74.9744 deg

SMA: 6972.169 km

Apoapsis: 605.584 km

Periapsis: 582.484 km

RAAN: 43.3591 deg

Eccentricy: 0.0016566

Argument of periapsis: 138.8471 deg

Mean anomaly: 221.397 deg

Mean motion: 14.91251573 rev/day

Mean motion (dot): 0.00002133 rev/day2

B* drag term: 0.00021665 1/REarth

Two-line elements (TLE)

Creation date: May 8, 2025, 3:01 a.m.

Reference frame: TEME

Reference center: EARTH

Epoch: May 7, 2025, 10:34 p.m. UTC

TLE line 0: 0 SJ-16

TLE line 1: 1 39358U 13057A 25127.94052780 .00002133 00000-0 21665-3 0 9998

TLE line 2: 2 39358 74.9744 43.3591 0016566 138.8471 221.3970 14.91251573625911

Live tracking on map

Real-time ground track for satellite SJ-16.

In-orbit conjunctions

There are no conjunctions computed for SJ-16, at the moment. Check back to stay up to date, as we update our databases every day.

Go to all conjunctions

Associated space launch

SJ-16 was lifted into orbit during the mission ‘Long March 4B | Shijian 16’, on board a Long March 4B space rocket.

The launch took place on Oct. 25, 2013, 3:50 a.m. from Launch Area 4 (SLS-2 / 603).

For more information about the launch, click the button.

Launch to space Long March 4B | Shijian 16
Long March 4B | Shijian 16

Agency: N/A

Status: Launch Successful

Launch date: Oct. 25, 2013, 3:50 a.m. UTC

Rocket: Long March 4B

Launch pad: Launch Area 4 (SLS-2 / 603)

Location: Jiuquan Satellite Launch Center, People's Republic of China

...

Latest news about this satellite

There are no fresh news available about this satellite. Check back as we update our databases every day.


Newsletter sign-up

Weekly statistics, charts and insights to help you stay on top of the space industry.